Index of /20260502/WXO-DD/model_rdps/10km/00/019
Name Last modified Size Description
Parent Directory -
20260502T00Z_MSC_RDPS_AbsoluteVorticity_IsbL-0250_RLatLon0.09_PT019H.grib2 2026-05-02 02:45 596K
20260502T00Z_MSC_RDPS_AbsoluteVorticity_IsbL-0500_RLatLon0.09_PT019H.grib2 2026-05-02 02:45 679K
20260502T00Z_MSC_RDPS_AbsoluteVorticity_IsbL-0700_RLatLon0.09_PT019H.grib2 2026-05-02 02:45 624K
20260502T00Z_MSC_RDPS_AbsoluteVorticity_IsbL-0850_RLatLon0.09_PT019H.grib2 2026-05-02 02:45 785K
20260502T00Z_MSC_RDPS_AirTemp_AGL-120m_RLatLon0.09_PT019H.grib2 2026-05-02 02:45 378K
20260502T00Z_MSC_RDPS_AirTemp_AGL-2m_RLatLon0.09_PT019H.grib2 2026-05-02 02:45 631K
20260502T00Z_MSC_RDPS_AirTemp_AGL-40m_RLatLon0.09_PT019H.grib2 2026-05-02 02:45 403K
20260502T00Z_MSC_RDPS_AirTemp_AGL-80m_RLatLon0.09_PT019H.grib2 2026-05-02 02:45 382K
20260502T00Z_MSC_RDPS_AirTemp_IsbL-0001_RLatLon0.09_PT019H.grib2 2026-05-02 02:45 275K
20260502T00Z_MSC_RDPS_AirTemp_IsbL-0005_RLatLon0.09_PT019H.grib2 2026-05-02 02:45 286K
20260502T00Z_MSC_RDPS_AirTemp_IsbL-0010_RLatLon0.09_PT019H.grib2 2026-05-02 02:45 296K
20260502T00Z_MSC_RDPS_AirTemp_IsbL-0020_RLatLon0.09_PT019H.grib2 2026-05-02 02:45 403K
20260502T00Z_MSC_RDPS_AirTemp_IsbL-0030_RLatLon0.09_PT019H.grib2 2026-05-02 02:45 332K
20260502T00Z_MSC_RDPS_AirTemp_IsbL-0050_RLatLon0.09_PT019H.grib2 2026-05-02 02:45 309K
20260502T00Z_MSC_RDPS_AirTemp_IsbL-0100_RLatLon0.09_PT019H.grib2 2026-05-02 02:45 416K
20260502T00Z_MSC_RDPS_AirTemp_IsbL-0150_RLatLon0.09_PT019H.grib2 2026-05-02 02:45 413K
20260502T00Z_MSC_RDPS_AirTemp_IsbL-0175_RLatLon0.09_PT019H.grib2 2026-05-02 02:45 406K
20260502T00Z_MSC_RDPS_AirTemp_IsbL-0200_RLatLon0.09_PT019H.grib2 2026-05-02 02:45 411K
20260502T00Z_MSC_RDPS_AirTemp_IsbL-0225_RLatLon0.09_PT019H.grib2 2026-05-02 02:45 409K
20260502T00Z_MSC_RDPS_AirTemp_IsbL-0250_RLatLon0.09_PT019H.grib2 2026-05-02 02:45 415K
20260502T00Z_MSC_RDPS_AirTemp_IsbL-0275_RLatLon0.09_PT019H.grib2 2026-05-02 02:45 397K
20260502T00Z_MSC_RDPS_AirTemp_IsbL-0300_RLatLon0.09_PT019H.grib2 2026-05-02 02:45 405K
20260502T00Z_MSC_RDPS_AirTemp_IsbL-0350_RLatLon0.09_PT019H.grib2 2026-05-02 02:45 422K
20260502T00Z_MSC_RDPS_AirTemp_IsbL-0400_RLatLon0.09_PT019H.grib2 2026-05-02 02:45 388K
20260502T00Z_MSC_RDPS_AirTemp_IsbL-0450_RLatLon0.09_PT019H.grib2 2026-05-02 02:45 395K
20260502T00Z_MSC_RDPS_AirTemp_IsbL-0500_RLatLon0.09_PT019H.grib2 2026-05-02 02:45 406K
20260502T00Z_MSC_RDPS_AirTemp_IsbL-0550_RLatLon0.09_PT019H.grib2 2026-05-02 02:45 425K
20260502T00Z_MSC_RDPS_AirTemp_IsbL-0600_RLatLon0.09_PT019H.grib2 2026-05-02 02:45 445K
20260502T00Z_MSC_RDPS_AirTemp_IsbL-0650_RLatLon0.09_PT019H.grib2 2026-05-02 02:45 463K
20260502T00Z_MSC_RDPS_AirTemp_IsbL-0700_RLatLon0.09_PT019H.grib2 2026-05-02 02:45 384K
20260502T00Z_MSC_RDPS_AirTemp_IsbL-0750_RLatLon0.09_PT019H.grib2 2026-05-02 02:45 417K
20260502T00Z_MSC_RDPS_AirTemp_IsbL-0800_RLatLon0.09_PT019H.grib2 2026-05-02 02:45 458K
20260502T00Z_MSC_RDPS_AirTemp_IsbL-0850_RLatLon0.09_PT019H.grib2 2026-05-02 02:45 504K
20260502T00Z_MSC_RDPS_AirTemp_IsbL-0875_RLatLon0.09_PT019H.grib2 2026-05-02 02:45 524K
20260502T00Z_MSC_RDPS_AirTemp_IsbL-0900_RLatLon0.09_PT019H.grib2 2026-05-02 02:45 534K
20260502T00Z_MSC_RDPS_AirTemp_IsbL-0925_RLatLon0.09_PT019H.grib2 2026-05-02 02:45 529K
20260502T00Z_MSC_RDPS_AirTemp_IsbL-0950_RLatLon0.09_PT019H.grib2 2026-05-02 02:45 532K
20260502T00Z_MSC_RDPS_AirTemp_IsbL-0970_RLatLon0.09_PT019H.grib2 2026-05-02 02:45 529K
20260502T00Z_MSC_RDPS_AirTemp_IsbL-0985_RLatLon0.09_PT019H.grib2 2026-05-02 02:45 520K
20260502T00Z_MSC_RDPS_AirTemp_IsbL-1000_RLatLon0.09_PT019H.grib2 2026-05-02 02:45 504K
20260502T00Z_MSC_RDPS_AirTemp_IsbL-1015_RLatLon0.09_PT019H.grib2 2026-05-02 02:45 502K
20260502T00Z_MSC_RDPS_Albedo_Sfc_RLatLon0.09_PT019H.grib2 2026-05-02 02:45 157K
20260502T00Z_MSC_RDPS_CAPE_Sfc_RLatLon0.09_PT019H.grib2 2026-05-02 02:45 1.7M
20260502T00Z_MSC_RDPS_CIN_Sfc_RLatLon0.09_PT019H.grib2 2026-05-02 02:45 1.2M
20260502T00Z_MSC_RDPS_CloudWater_EAtm_RLatLon0.09_PT019H.grib2 2026-05-02 02:45 221K
20260502T00Z_MSC_RDPS_ConvectivePrecip-Accum_Sfc_RLatLon0.09_PT019H.grib2 2026-05-02 02:45 733K
20260502T00Z_MSC_RDPS_DewPointDepression_AGL-2m_RLatLon0.09_PT019H.grib2 2026-05-02 02:45 423K
20260502T00Z_MSC_RDPS_DewPointDepression_IsbL-0001_RLatLon0.09_PT019H.grib2 2026-05-02 02:45 193
20260502T00Z_MSC_RDPS_DewPointDepression_IsbL-0005_RLatLon0.09_PT019H.grib2 2026-05-02 02:45 193
20260502T00Z_MSC_RDPS_DewPointDepression_IsbL-0010_RLatLon0.09_PT019H.grib2 2026-05-02 02:45 193
20260502T00Z_MSC_RDPS_DewPointDepression_IsbL-0020_RLatLon0.09_PT019H.grib2 2026-05-02 02:45 193
20260502T00Z_MSC_RDPS_DewPointDepression_IsbL-0030_RLatLon0.09_PT019H.grib2 2026-05-02 02:45 193
20260502T00Z_MSC_RDPS_DewPointDepression_IsbL-0050_RLatLon0.09_PT019H.grib2 2026-05-02 02:45 104K
20260502T00Z_MSC_RDPS_DewPointDepression_IsbL-0100_RLatLon0.09_PT019H.grib2 2026-05-02 02:45 120K
20260502T00Z_MSC_RDPS_DewPointDepression_IsbL-0150_RLatLon0.09_PT019H.grib2 2026-05-02 02:45 149K
20260502T00Z_MSC_RDPS_DewPointDepression_IsbL-0175_RLatLon0.09_PT019H.grib2 2026-05-02 02:45 186K
20260502T00Z_MSC_RDPS_DewPointDepression_IsbL-0200_RLatLon0.09_PT019H.grib2 2026-05-02 02:45 216K
20260502T00Z_MSC_RDPS_DewPointDepression_IsbL-0225_RLatLon0.09_PT019H.grib2 2026-05-02 02:45 254K
20260502T00Z_MSC_RDPS_DewPointDepression_IsbL-0250_RLatLon0.09_PT019H.grib2 2026-05-02 02:45 294K
20260502T00Z_MSC_RDPS_DewPointDepression_IsbL-0275_RLatLon0.09_PT019H.grib2 2026-05-02 02:45 304K
20260502T00Z_MSC_RDPS_DewPointDepression_IsbL-0300_RLatLon0.09_PT019H.grib2 2026-05-02 02:45 322K
20260502T00Z_MSC_RDPS_DewPointDepression_IsbL-0350_RLatLon0.09_PT019H.grib2 2026-05-02 02:45 328K
20260502T00Z_MSC_RDPS_DewPointDepression_IsbL-0400_RLatLon0.09_PT019H.grib2 2026-05-02 02:45 338K
20260502T00Z_MSC_RDPS_DewPointDepression_IsbL-0450_RLatLon0.09_PT019H.grib2 2026-05-02 02:45 341K
20260502T00Z_MSC_RDPS_DewPointDepression_IsbL-0500_RLatLon0.09_PT019H.grib2 2026-05-02 02:45 350K
20260502T00Z_MSC_RDPS_DewPointDepression_IsbL-0550_RLatLon0.09_PT019H.grib2 2026-05-02 02:45 364K
20260502T00Z_MSC_RDPS_DewPointDepression_IsbL-0600_RLatLon0.09_PT019H.grib2 2026-05-02 02:45 377K
20260502T00Z_MSC_RDPS_DewPointDepression_IsbL-0650_RLatLon0.09_PT019H.grib2 2026-05-02 02:45 386K
20260502T00Z_MSC_RDPS_DewPointDepression_IsbL-0700_RLatLon0.09_PT019H.grib2 2026-05-02 02:45 399K
20260502T00Z_MSC_RDPS_DewPointDepression_IsbL-0750_RLatLon0.09_PT019H.grib2 2026-05-02 02:45 420K
20260502T00Z_MSC_RDPS_DewPointDepression_IsbL-0800_RLatLon0.09_PT019H.grib2 2026-05-02 02:45 450K
20260502T00Z_MSC_RDPS_DewPointDepression_IsbL-0850_RLatLon0.09_PT019H.grib2 2026-05-02 02:45 478K
20260502T00Z_MSC_RDPS_DewPointDepression_IsbL-0875_RLatLon0.09_PT019H.grib2 2026-05-02 02:45 479K
20260502T00Z_MSC_RDPS_DewPointDepression_IsbL-0900_RLatLon0.09_PT019H.grib2 2026-05-02 02:45 469K
20260502T00Z_MSC_RDPS_DewPointDepression_IsbL-0925_RLatLon0.09_PT019H.grib2 2026-05-02 02:45 453K
20260502T00Z_MSC_RDPS_DewPointDepression_IsbL-0950_RLatLon0.09_PT019H.grib2 2026-05-02 02:45 449K
20260502T00Z_MSC_RDPS_DewPointDepression_IsbL-0970_RLatLon0.09_PT019H.grib2 2026-05-02 02:45 444K
20260502T00Z_MSC_RDPS_DewPointDepression_IsbL-0985_RLatLon0.09_PT019H.grib2 2026-05-02 02:45 440K
20260502T00Z_MSC_RDPS_DewPointDepression_IsbL-1000_RLatLon0.09_PT019H.grib2 2026-05-02 02:45 434K
20260502T00Z_MSC_RDPS_DewPointDepression_IsbL-1015_RLatLon0.09_PT019H.grib2 2026-05-02 02:45 426K
20260502T00Z_MSC_RDPS_DewPoint_AGL-2m_RLatLon0.09_PT019H.grib2 2026-05-02 02:45 402K
20260502T00Z_MSC_RDPS_DownwardLongwaveRadiationFlux-Accum_Sfc_RLatLon0.09_PT019H.grib2 2026-05-02 02:45 408K
20260502T00Z_MSC_RDPS_DownwardShortwaveRadiationFlux-Accum_NTAtm_RLatLon0.09_PT019H.grib2 2026-05-02 02:45 94K
20260502T00Z_MSC_RDPS_DownwardShortwaveRadiationFlux-Accum_Sfc_RLatLon0.09_PT019H.grib2 2026-05-02 02:45 573K
20260502T00Z_MSC_RDPS_FreezingRain-Accum1h_Sfc_RLatLon0.09_PT019H.grib2 2026-05-02 02:45 17K
20260502T00Z_MSC_RDPS_FreezingRain-Accum_Sfc_RLatLon0.09_PT019H.grib2 2026-05-02 02:45 103K
20260502T00Z_MSC_RDPS_GeopotentialHeight_IsbL-0001_RLatLon0.09_PT019H.grib2 2026-05-02 02:45 243K
20260502T00Z_MSC_RDPS_GeopotentialHeight_IsbL-0005_RLatLon0.09_PT019H.grib2 2026-05-02 02:45 304K
20260502T00Z_MSC_RDPS_GeopotentialHeight_IsbL-0010_RLatLon0.09_PT019H.grib2 2026-05-02 02:45 305K
20260502T00Z_MSC_RDPS_GeopotentialHeight_IsbL-0020_RLatLon0.09_PT019H.grib2 2026-05-02 02:45 304K
20260502T00Z_MSC_RDPS_GeopotentialHeight_IsbL-0030_RLatLon0.09_PT019H.grib2 2026-05-02 02:45 307K
20260502T00Z_MSC_RDPS_GeopotentialHeight_IsbL-0050_RLatLon0.09_PT019H.grib2 2026-05-02 02:45 308K
20260502T00Z_MSC_RDPS_GeopotentialHeight_IsbL-0100_RLatLon0.09_PT019H.grib2 2026-05-02 02:45 283K
20260502T00Z_MSC_RDPS_GeopotentialHeight_IsbL-0150_RLatLon0.09_PT019H.grib2 2026-05-02 02:45 228K
20260502T00Z_MSC_RDPS_GeopotentialHeight_IsbL-0175_RLatLon0.09_PT019H.grib2 2026-05-02 02:45 231K
20260502T00Z_MSC_RDPS_GeopotentialHeight_IsbL-0200_RLatLon0.09_PT019H.grib2 2026-05-02 02:45 264K
20260502T00Z_MSC_RDPS_GeopotentialHeight_IsbL-0225_RLatLon0.09_PT019H.grib2 2026-05-02 02:45 265K
20260502T00Z_MSC_RDPS_GeopotentialHeight_IsbL-0250_RLatLon0.09_PT019H.grib2 2026-05-02 02:45 265K
20260502T00Z_MSC_RDPS_GeopotentialHeight_IsbL-0275_RLatLon0.09_PT019H.grib2 2026-05-02 02:45 264K
20260502T00Z_MSC_RDPS_GeopotentialHeight_IsbL-0300_RLatLon0.09_PT019H.grib2 2026-05-02 02:45 264K
20260502T00Z_MSC_RDPS_GeopotentialHeight_IsbL-0350_RLatLon0.09_PT019H.grib2 2026-05-02 02:45 230K
20260502T00Z_MSC_RDPS_GeopotentialHeight_IsbL-0400_RLatLon0.09_PT019H.grib2 2026-05-02 02:45 227K
20260502T00Z_MSC_RDPS_GeopotentialHeight_IsbL-0450_RLatLon0.09_PT019H.grib2 2026-05-02 02:45 296K
20260502T00Z_MSC_RDPS_GeopotentialHeight_IsbL-0500_RLatLon0.09_PT019H.grib2 2026-05-02 02:45 292K
20260502T00Z_MSC_RDPS_GeopotentialHeight_IsbL-0550_RLatLon0.09_PT019H.grib2 2026-05-02 02:45 289K
20260502T00Z_MSC_RDPS_GeopotentialHeight_IsbL-0600_RLatLon0.09_PT019H.grib2 2026-05-02 02:45 287K
20260502T00Z_MSC_RDPS_GeopotentialHeight_IsbL-0650_RLatLon0.09_PT019H.grib2 2026-05-02 02:45 257K
20260502T00Z_MSC_RDPS_GeopotentialHeight_IsbL-0700_RLatLon0.09_PT019H.grib2 2026-05-02 02:45 257K
20260502T00Z_MSC_RDPS_GeopotentialHeight_IsbL-0750_RLatLon0.09_PT019H.grib2 2026-05-02 02:45 344K
20260502T00Z_MSC_RDPS_GeopotentialHeight_IsbL-0800_RLatLon0.09_PT019H.grib2 2026-05-02 02:45 352K
20260502T00Z_MSC_RDPS_GeopotentialHeight_IsbL-0850_RLatLon0.09_PT019H.grib2 2026-05-02 02:45 359K
20260502T00Z_MSC_RDPS_GeopotentialHeight_IsbL-0875_RLatLon0.09_PT019H.grib2 2026-05-02 02:45 360K
20260502T00Z_MSC_RDPS_GeopotentialHeight_IsbL-0900_RLatLon0.09_PT019H.grib2 2026-05-02 02:45 366K
20260502T00Z_MSC_RDPS_GeopotentialHeight_IsbL-0925_RLatLon0.09_PT019H.grib2 2026-05-02 02:45 368K
20260502T00Z_MSC_RDPS_GeopotentialHeight_IsbL-0950_RLatLon0.09_PT019H.grib2 2026-05-02 02:45 374K
20260502T00Z_MSC_RDPS_GeopotentialHeight_IsbL-0970_RLatLon0.09_PT019H.grib2 2026-05-02 02:45 381K
20260502T00Z_MSC_RDPS_GeopotentialHeight_IsbL-0985_RLatLon0.09_PT019H.grib2 2026-05-02 02:45 390K
20260502T00Z_MSC_RDPS_GeopotentialHeight_IsbL-1000_RLatLon0.09_PT019H.grib2 2026-05-02 02:45 403K
20260502T00Z_MSC_RDPS_GeopotentialHeight_IsbL-1015_RLatLon0.09_PT019H.grib2 2026-05-02 02:45 418K
20260502T00Z_MSC_RDPS_Humidex_Sfc_RLatLon0.09_PT019H.grib2 2026-05-02 02:45 2.4M
20260502T00Z_MSC_RDPS_IcePellets-Accum1h_Sfc_RLatLon0.09_PT019H.grib2 2026-05-02 02:45 8.1K
20260502T00Z_MSC_RDPS_IcePellets-Accum_Sfc_RLatLon0.09_PT019H.grib2 2026-05-02 02:45 16K
20260502T00Z_MSC_RDPS_KIndex_Sfc_RLatLon0.09_PT019H.grib2 2026-05-02 02:45 2.4M
20260502T00Z_MSC_RDPS_LatentHeatNetFlux_Sfc_RLatLon0.09_PT019H.grib2 2026-05-02 02:45 312K
20260502T00Z_MSC_RDPS_LiftedIndex-MU-VT_IsbL-0500_RLatLon0.09_PT019H.grib2 2026-05-02 02:45 2.4M
20260502T00Z_MSC_RDPS_NetLongwaveRadiationFlux-Accum_Sfc_RLatLon0.09_PT019H.grib2 2026-05-02 02:45 544K
20260502T00Z_MSC_RDPS_NetShortwaveRadiationFlux-Accum_Sfc_RLatLon0.09_PT019H.grib2 2026-05-02 02:45 571K
20260502T00Z_MSC_RDPS_PlanetaryBoundaryLayerHeight_Sfc_RLatLon0.09_PT019H.grib2 2026-05-02 02:45 1.0M
20260502T00Z_MSC_RDPS_Precip-Accum1h_Sfc_RLatLon0.09_PT019H.grib2 2026-05-02 02:45 1.2M
20260502T00Z_MSC_RDPS_Precip-Accum_Sfc_RLatLon0.09_PT019H.grib2 2026-05-02 02:45 1.7M
20260502T00Z_MSC_RDPS_PrecipRate_Sfc_RLatLon0.09_PT019H.grib2 2026-05-02 02:45 173K
20260502T00Z_MSC_RDPS_PrecipType-Instant_Sfc_RLatLon0.09_PT019H.grib2 2026-05-02 02:45 578K
20260502T00Z_MSC_RDPS_Pressure-Trend3h_Sfc_RLatLon0.09_PT019H.grib2 2026-05-02 02:45 1.2M
20260502T00Z_MSC_RDPS_Pressure_MSL_RLatLon0.09_PT019H.grib2 2026-05-02 02:45 331K
20260502T00Z_MSC_RDPS_Pressure_PVU-1.5_RLatLon0.09_PT019H.grib2 2026-05-02 02:45 2.5M
20260502T00Z_MSC_RDPS_Pressure_PVU-1_RLatLon0.09_PT019H.grib2 2026-05-02 02:45 2.4M
20260502T00Z_MSC_RDPS_Pressure_PVU-2_RLatLon0.09_PT019H.grib2 2026-05-02 02:45 2.4M
20260502T00Z_MSC_RDPS_Pressure_Sfc_RLatLon0.09_PT019H.grib2 2026-05-02 02:45 500K
20260502T00Z_MSC_RDPS_RadiativeTemp_Sfc_RLatLon0.09_PT019H.grib2 2026-05-02 02:45 331K
20260502T00Z_MSC_RDPS_Rain-Accum1h_Sfc_RLatLon0.09_PT019H.grib2 2026-05-02 02:45 519K
20260502T00Z_MSC_RDPS_Rain-Accum_Sfc_RLatLon0.09_PT019H.grib2 2026-05-02 02:45 1.3M
20260502T00Z_MSC_RDPS_RelativeHumidity_AGL-2m_RLatLon0.09_PT019H.grib2 2026-05-02 02:45 1.0M
20260502T00Z_MSC_RDPS_RelativeHumidity_IsbL-0010_RLatLon0.09_PT019H.grib2 2026-05-02 02:45 633K
20260502T00Z_MSC_RDPS_RelativeHumidity_IsbL-0020_RLatLon0.09_PT019H.grib2 2026-05-02 02:45 673K
20260502T00Z_MSC_RDPS_RelativeHumidity_IsbL-0030_RLatLon0.09_PT019H.grib2 2026-05-02 02:45 603K
20260502T00Z_MSC_RDPS_RelativeHumidity_IsbL-0050_RLatLon0.09_PT019H.grib2 2026-05-02 02:45 358K
20260502T00Z_MSC_RDPS_RelativeHumidity_IsbL-0100_RLatLon0.09_PT019H.grib2 2026-05-02 02:45 272K
20260502T00Z_MSC_RDPS_RelativeHumidity_IsbL-0150_RLatLon0.09_PT019H.grib2 2026-05-02 02:45 406K
20260502T00Z_MSC_RDPS_RelativeHumidity_IsbL-0175_RLatLon0.09_PT019H.grib2 2026-05-02 02:45 471K
20260502T00Z_MSC_RDPS_RelativeHumidity_IsbL-0200_RLatLon0.09_PT019H.grib2 2026-05-02 02:45 543K
20260502T00Z_MSC_RDPS_RelativeHumidity_IsbL-0225_RLatLon0.09_PT019H.grib2 2026-05-02 02:45 605K
20260502T00Z_MSC_RDPS_RelativeHumidity_IsbL-0250_RLatLon0.09_PT019H.grib2 2026-05-02 02:45 675K
20260502T00Z_MSC_RDPS_RelativeHumidity_IsbL-0275_RLatLon0.09_PT019H.grib2 2026-05-02 02:45 700K
20260502T00Z_MSC_RDPS_RelativeHumidity_IsbL-0300_RLatLon0.09_PT019H.grib2 2026-05-02 02:45 740K
20260502T00Z_MSC_RDPS_RelativeHumidity_IsbL-0350_RLatLon0.09_PT019H.grib2 2026-05-02 02:45 766K
20260502T00Z_MSC_RDPS_RelativeHumidity_IsbL-0400_RLatLon0.09_PT019H.grib2 2026-05-02 02:45 780K
20260502T00Z_MSC_RDPS_RelativeHumidity_IsbL-0450_RLatLon0.09_PT019H.grib2 2026-05-02 02:45 783K
20260502T00Z_MSC_RDPS_RelativeHumidity_IsbL-0500_RLatLon0.09_PT019H.grib2 2026-05-02 02:45 794K
20260502T00Z_MSC_RDPS_RelativeHumidity_IsbL-0550_RLatLon0.09_PT019H.grib2 2026-05-02 02:45 825K
20260502T00Z_MSC_RDPS_RelativeHumidity_IsbL-0600_RLatLon0.09_PT019H.grib2 2026-05-02 02:45 839K
20260502T00Z_MSC_RDPS_RelativeHumidity_IsbL-0650_RLatLon0.09_PT019H.grib2 2026-05-02 02:45 856K
20260502T00Z_MSC_RDPS_RelativeHumidity_IsbL-0700_RLatLon0.09_PT019H.grib2 2026-05-02 02:45 892K
20260502T00Z_MSC_RDPS_RelativeHumidity_IsbL-0750_RLatLon0.09_PT019H.grib2 2026-05-02 02:45 936K
20260502T00Z_MSC_RDPS_RelativeHumidity_IsbL-0800_RLatLon0.09_PT019H.grib2 2026-05-02 02:45 1.0M
20260502T00Z_MSC_RDPS_RelativeHumidity_IsbL-0850_RLatLon0.09_PT019H.grib2 2026-05-02 02:45 1.0M
20260502T00Z_MSC_RDPS_RelativeHumidity_IsbL-0875_RLatLon0.09_PT019H.grib2 2026-05-02 02:45 1.1M
20260502T00Z_MSC_RDPS_RelativeHumidity_IsbL-0900_RLatLon0.09_PT019H.grib2 2026-05-02 02:45 1.1M
20260502T00Z_MSC_RDPS_RelativeHumidity_IsbL-0925_RLatLon0.09_PT019H.grib2 2026-05-02 02:45 1.1M
20260502T00Z_MSC_RDPS_RelativeHumidity_IsbL-0950_RLatLon0.09_PT019H.grib2 2026-05-02 02:45 1.1M
20260502T00Z_MSC_RDPS_RelativeHumidity_IsbL-0970_RLatLon0.09_PT019H.grib2 2026-05-02 02:45 1.0M
20260502T00Z_MSC_RDPS_RelativeHumidity_IsbL-0985_RLatLon0.09_PT019H.grib2 2026-05-02 02:45 1.0M
20260502T00Z_MSC_RDPS_RelativeHumidity_IsbL-1000_RLatLon0.09_PT019H.grib2 2026-05-02 02:45 1.0M
20260502T00Z_MSC_RDPS_RelativeHumidity_IsbL-1015_RLatLon0.09_PT019H.grib2 2026-05-02 02:45 1.0M
20260502T00Z_MSC_RDPS_Runoff-Accum_Sfc_RLatLon0.09_PT019H.grib2 2026-05-02 02:45 46K
20260502T00Z_MSC_RDPS_SWEATIndex_Sfc_RLatLon0.09_PT019H.grib2 2026-05-02 02:45 2.4M
20260502T00Z_MSC_RDPS_SeeingIndex_EAtm_RLatLon0.09_PT019H.grib2 2026-05-02 02:45 1.0M
20260502T00Z_MSC_RDPS_SensibleHeatNetFlux_Sfc_RLatLon0.09_PT019H.grib2 2026-05-02 02:45 369K
20260502T00Z_MSC_RDPS_ShowalterIndex_IsbL-0500_RLatLon0.09_PT019H.grib2 2026-05-02 02:45 2.6M
20260502T00Z_MSC_RDPS_SkyTransparencyIndex_EAtm_RLatLon0.09_PT019H.grib2 2026-05-02 02:45 717K
20260502T00Z_MSC_RDPS_Snow-Accum1h_Sfc_RLatLon0.09_PT019H.grib2 2026-05-02 02:45 445K
20260502T00Z_MSC_RDPS_Snow-Accum_Sfc_RLatLon0.09_PT019H.grib2 2026-05-02 02:45 647K
20260502T00Z_MSC_RDPS_SnowDensity_Sfc_RLatLon0.09_PT019H.grib2 2026-05-02 02:45 168K
20260502T00Z_MSC_RDPS_SnowDepth_Sfc_RLatLon0.09_PT019H.grib2 2026-05-02 02:45 659K
20260502T00Z_MSC_RDPS_SoilTemp_DBS-0to10cm_RLatLon0.09_PT019H.grib2 2026-05-02 02:45 223K
20260502T00Z_MSC_RDPS_SoilTemp_Sfc_RLatLon0.09_PT019H.grib2 2026-05-02 02:45 292K
20260502T00Z_MSC_RDPS_SoilVolumetricIceContent_Sfc_RLatLon0.09_PT019H.grib2 2026-05-02 02:45 159K
20260502T00Z_MSC_RDPS_SoilVolumetricWaterContent_DBS-0to10cm_RLatLon0.09_PT019H.grib2 2026-05-02 02:45 271K
20260502T00Z_MSC_RDPS_SoilVolumetricWaterContent_DBS-0to1cm_RLatLon0.09_PT019H.grib2 2026-05-02 02:45 338K
20260502T00Z_MSC_RDPS_SpecificHumidity_AGL-120m_RLatLon0.09_PT019H.grib2 2026-05-02 02:45 500K
20260502T00Z_MSC_RDPS_SpecificHumidity_AGL-2m_RLatLon0.09_PT019H.grib2 2026-05-02 02:45 668K
20260502T00Z_MSC_RDPS_SpecificHumidity_AGL-40m_RLatLon0.09_PT019H.grib2 2026-05-02 02:45 503K
20260502T00Z_MSC_RDPS_SpecificHumidity_AGL-80m_RLatLon0.09_PT019H.grib2 2026-05-02 02:45 501K
20260502T00Z_MSC_RDPS_SpecificHumidity_IsbL-0001_RLatLon0.09_PT019H.grib2 2026-05-02 02:45 404K
20260502T00Z_MSC_RDPS_SpecificHumidity_IsbL-0005_RLatLon0.09_PT019H.grib2 2026-05-02 02:45 363K
20260502T00Z_MSC_RDPS_SpecificHumidity_IsbL-0010_RLatLon0.09_PT019H.grib2 2026-05-02 02:45 395K
20260502T00Z_MSC_RDPS_SpecificHumidity_IsbL-0020_RLatLon0.09_PT019H.grib2 2026-05-02 02:45 379K
20260502T00Z_MSC_RDPS_SpecificHumidity_IsbL-0030_RLatLon0.09_PT019H.grib2 2026-05-02 02:45 373K
20260502T00Z_MSC_RDPS_SpecificHumidity_IsbL-0050_RLatLon0.09_PT019H.grib2 2026-05-02 02:45 486K
20260502T00Z_MSC_RDPS_SpecificHumidity_IsbL-0100_RLatLon0.09_PT019H.grib2 2026-05-02 02:45 415K
20260502T00Z_MSC_RDPS_SpecificHumidity_IsbL-0150_RLatLon0.09_PT019H.grib2 2026-05-02 02:45 448K
20260502T00Z_MSC_RDPS_SpecificHumidity_IsbL-0175_RLatLon0.09_PT019H.grib2 2026-05-02 02:45 431K
20260502T00Z_MSC_RDPS_SpecificHumidity_IsbL-0200_RLatLon0.09_PT019H.grib2 2026-05-02 02:45 442K
20260502T00Z_MSC_RDPS_SpecificHumidity_IsbL-0225_RLatLon0.09_PT019H.grib2 2026-05-02 02:45 458K
20260502T00Z_MSC_RDPS_SpecificHumidity_IsbL-0250_RLatLon0.09_PT019H.grib2 2026-05-02 02:45 508K
20260502T00Z_MSC_RDPS_SpecificHumidity_IsbL-0275_RLatLon0.09_PT019H.grib2 2026-05-02 02:45 468K
20260502T00Z_MSC_RDPS_SpecificHumidity_IsbL-0300_RLatLon0.09_PT019H.grib2 2026-05-02 02:45 441K
20260502T00Z_MSC_RDPS_SpecificHumidity_IsbL-0350_RLatLon0.09_PT019H.grib2 2026-05-02 02:45 437K
20260502T00Z_MSC_RDPS_SpecificHumidity_IsbL-0400_RLatLon0.09_PT019H.grib2 2026-05-02 02:45 515K
20260502T00Z_MSC_RDPS_SpecificHumidity_IsbL-0450_RLatLon0.09_PT019H.grib2 2026-05-02 02:45 563K
20260502T00Z_MSC_RDPS_SpecificHumidity_IsbL-0500_RLatLon0.09_PT019H.grib2 2026-05-02 02:45 502K
20260502T00Z_MSC_RDPS_SpecificHumidity_IsbL-0550_RLatLon0.09_PT019H.grib2 2026-05-02 02:45 577K
20260502T00Z_MSC_RDPS_SpecificHumidity_IsbL-0600_RLatLon0.09_PT019H.grib2 2026-05-02 02:45 634K
20260502T00Z_MSC_RDPS_SpecificHumidity_IsbL-0650_RLatLon0.09_PT019H.grib2 2026-05-02 02:45 554K
20260502T00Z_MSC_RDPS_SpecificHumidity_IsbL-0700_RLatLon0.09_PT019H.grib2 2026-05-02 02:45 600K
20260502T00Z_MSC_RDPS_SpecificHumidity_IsbL-0750_RLatLon0.09_PT019H.grib2 2026-05-02 02:45 672K
20260502T00Z_MSC_RDPS_SpecificHumidity_IsbL-0800_RLatLon0.09_PT019H.grib2 2026-05-02 02:45 742K
20260502T00Z_MSC_RDPS_SpecificHumidity_IsbL-0850_RLatLon0.09_PT019H.grib2 2026-05-02 02:45 677K
20260502T00Z_MSC_RDPS_SpecificHumidity_IsbL-0875_RLatLon0.09_PT019H.grib2 2026-05-02 02:45 701K
20260502T00Z_MSC_RDPS_SpecificHumidity_IsbL-0900_RLatLon0.09_PT019H.grib2 2026-05-02 02:45 712K
20260502T00Z_MSC_RDPS_SpecificHumidity_IsbL-0925_RLatLon0.09_PT019H.grib2 2026-05-02 02:45 711K
20260502T00Z_MSC_RDPS_SpecificHumidity_IsbL-0950_RLatLon0.09_PT019H.grib2 2026-05-02 02:45 714K
20260502T00Z_MSC_RDPS_SpecificHumidity_IsbL-0970_RLatLon0.09_PT019H.grib2 2026-05-02 02:45 706K
20260502T00Z_MSC_RDPS_SpecificHumidity_IsbL-0985_RLatLon0.09_PT019H.grib2 2026-05-02 02:45 701K
20260502T00Z_MSC_RDPS_SpecificHumidity_IsbL-1000_RLatLon0.09_PT019H.grib2 2026-05-02 02:45 695K
20260502T00Z_MSC_RDPS_SpecificHumidity_IsbL-1015_RLatLon0.09_PT019H.grib2 2026-05-02 02:45 683K
20260502T00Z_MSC_RDPS_SpecificHumidity_Sfc_RLatLon0.09_PT019H.grib2 2026-05-02 02:45 345K
20260502T00Z_MSC_RDPS_StormRelativeHelicity_EtaL-10000_RLatLon0.09_PT019H.grib2 2026-05-02 02:45 1.1M
20260502T00Z_MSC_RDPS_StormSeverityIndex_EtaL-10000_RLatLon0.09_PT019H.grib2 2026-05-02 02:45 1.1M
20260502T00Z_MSC_RDPS_Thickness_IsbL-0850to0700_RLatLon0.09_PT019H.grib2 2026-05-02 02:45 179K
20260502T00Z_MSC_RDPS_Thickness_IsbL-1000to0500_RLatLon0.09_PT019H.grib2 2026-05-02 02:45 200K
20260502T00Z_MSC_RDPS_Thickness_IsbL-1000to0850_RLatLon0.09_PT019H.grib2 2026-05-02 02:45 189K
20260502T00Z_MSC_RDPS_TotalCloudCover_Sfc_RLatLon0.09_PT019H.grib2 2026-05-02 02:45 646K
20260502T00Z_MSC_RDPS_TotalTotalsIndex_Sfc_RLatLon0.09_PT019H.grib2 2026-05-02 02:45 2.3M
20260502T00Z_MSC_RDPS_UVIndex-ClearSky_Sfc_RLatLon0.09_PT019H.grib2 2026-05-02 02:45 225K
20260502T00Z_MSC_RDPS_UVIndex_Sfc_RLatLon0.09_PT019H.grib2 2026-05-02 02:45 528K
20260502T00Z_MSC_RDPS_UpwardLongwaveRadiationFlux_NTAtm_RLatLon0.09_PT019H.grib2 2026-05-02 02:45 376K
20260502T00Z_MSC_RDPS_UpwardShortwaveRadiationFlux_NTAtm_RLatLon0.09_PT019H.grib2 2026-05-02 02:45 561K
20260502T00Z_MSC_RDPS_VerticalVelocity_IsbL-0250_RLatLon0.09_PT019H.grib2 2026-05-02 02:45 546K
20260502T00Z_MSC_RDPS_VerticalVelocity_IsbL-0500_RLatLon0.09_PT019H.grib2 2026-05-02 02:45 535K
20260502T00Z_MSC_RDPS_VerticalVelocity_IsbL-0700_RLatLon0.09_PT019H.grib2 2026-05-02 02:45 596K
20260502T00Z_MSC_RDPS_VerticalVelocity_IsbL-0850_RLatLon0.09_PT019H.grib2 2026-05-02 02:45 706K
20260502T00Z_MSC_RDPS_VerticalWindShear_EtaL-6500_RLatLon0.09_PT019H.grib2 2026-05-02 02:45 1.2M
20260502T00Z_MSC_RDPS_WindChill_Sfc_RLatLon0.09_PT019H.grib2 2026-05-02 02:45 1.1M
20260502T00Z_MSC_RDPS_WindDir_AGL-10m_RLatLon0.09_PT019H.grib2 2026-05-02 02:45 954K
20260502T00Z_MSC_RDPS_WindDir_AGL-120m_RLatLon0.09_PT019H.grib2 2026-05-02 02:45 601K
20260502T00Z_MSC_RDPS_WindDir_AGL-40m_RLatLon0.09_PT019H.grib2 2026-05-02 02:45 622K
20260502T00Z_MSC_RDPS_WindDir_AGL-80m_RLatLon0.09_PT019H.grib2 2026-05-02 02:45 610K
20260502T00Z_MSC_RDPS_WindDir_IsbL-0001_RLatLon0.09_PT019H.grib2 2026-05-02 02:45 280K
20260502T00Z_MSC_RDPS_WindDir_IsbL-0005_RLatLon0.09_PT019H.grib2 2026-05-02 02:45 365K
20260502T00Z_MSC_RDPS_WindDir_IsbL-0010_RLatLon0.09_PT019H.grib2 2026-05-02 02:45 385K
20260502T00Z_MSC_RDPS_WindDir_IsbL-0020_RLatLon0.09_PT019H.grib2 2026-05-02 02:45 424K
20260502T00Z_MSC_RDPS_WindDir_IsbL-0030_RLatLon0.09_PT019H.grib2 2026-05-02 02:45 425K
20260502T00Z_MSC_RDPS_WindDir_IsbL-0050_RLatLon0.09_PT019H.grib2 2026-05-02 02:45 412K
20260502T00Z_MSC_RDPS_WindDir_IsbL-0100_RLatLon0.09_PT019H.grib2 2026-05-02 02:45 408K
20260502T00Z_MSC_RDPS_WindDir_IsbL-0150_RLatLon0.09_PT019H.grib2 2026-05-02 02:45 403K
20260502T00Z_MSC_RDPS_WindDir_IsbL-0175_RLatLon0.09_PT019H.grib2 2026-05-02 02:45 418K
20260502T00Z_MSC_RDPS_WindDir_IsbL-0200_RLatLon0.09_PT019H.grib2 2026-05-02 02:45 431K
20260502T00Z_MSC_RDPS_WindDir_IsbL-0225_RLatLon0.09_PT019H.grib2 2026-05-02 02:45 435K
20260502T00Z_MSC_RDPS_WindDir_IsbL-0250_RLatLon0.09_PT019H.grib2 2026-05-02 02:45 440K
20260502T00Z_MSC_RDPS_WindDir_IsbL-0275_RLatLon0.09_PT019H.grib2 2026-05-02 02:45 464K
20260502T00Z_MSC_RDPS_WindDir_IsbL-0300_RLatLon0.09_PT019H.grib2 2026-05-02 02:45 465K
20260502T00Z_MSC_RDPS_WindDir_IsbL-0350_RLatLon0.09_PT019H.grib2 2026-05-02 02:45 492K
20260502T00Z_MSC_RDPS_WindDir_IsbL-0400_RLatLon0.09_PT019H.grib2 2026-05-02 02:45 508K
20260502T00Z_MSC_RDPS_WindDir_IsbL-0450_RLatLon0.09_PT019H.grib2 2026-05-02 02:45 522K
20260502T00Z_MSC_RDPS_WindDir_IsbL-0500_RLatLon0.09_PT019H.grib2 2026-05-02 02:45 535K
20260502T00Z_MSC_RDPS_WindDir_IsbL-0550_RLatLon0.09_PT019H.grib2 2026-05-02 02:45 548K
20260502T00Z_MSC_RDPS_WindDir_IsbL-0600_RLatLon0.09_PT019H.grib2 2026-05-02 02:45 578K
20260502T00Z_MSC_RDPS_WindDir_IsbL-0650_RLatLon0.09_PT019H.grib2 2026-05-02 02:45 617K
20260502T00Z_MSC_RDPS_WindDir_IsbL-0700_RLatLon0.09_PT019H.grib2 2026-05-02 02:45 660K
20260502T00Z_MSC_RDPS_WindDir_IsbL-0750_RLatLon0.09_PT019H.grib2 2026-05-02 02:45 711K
20260502T00Z_MSC_RDPS_WindDir_IsbL-0800_RLatLon0.09_PT019H.grib2 2026-05-02 02:45 772K
20260502T00Z_MSC_RDPS_WindDir_IsbL-0850_RLatLon0.09_PT019H.grib2 2026-05-02 02:45 851K
20260502T00Z_MSC_RDPS_WindDir_IsbL-0875_RLatLon0.09_PT019H.grib2 2026-05-02 02:45 881K
20260502T00Z_MSC_RDPS_WindDir_IsbL-0900_RLatLon0.09_PT019H.grib2 2026-05-02 02:45 893K
20260502T00Z_MSC_RDPS_WindDir_IsbL-0925_RLatLon0.09_PT019H.grib2 2026-05-02 02:45 902K
20260502T00Z_MSC_RDPS_WindDir_IsbL-0950_RLatLon0.09_PT019H.grib2 2026-05-02 02:45 901K
20260502T00Z_MSC_RDPS_WindDir_IsbL-0970_RLatLon0.09_PT019H.grib2 2026-05-02 02:45 911K
20260502T00Z_MSC_RDPS_WindDir_IsbL-0985_RLatLon0.09_PT019H.grib2 2026-05-02 02:45 918K
20260502T00Z_MSC_RDPS_WindDir_IsbL-1000_RLatLon0.09_PT019H.grib2 2026-05-02 02:45 930K
20260502T00Z_MSC_RDPS_WindDir_IsbL-1015_RLatLon0.09_PT019H.grib2 2026-05-02 02:45 946K
20260502T00Z_MSC_RDPS_WindGust-Max_AGL-10m_RLatLon0.09_PT019H.grib2 2026-05-02 02:45 948K
20260502T00Z_MSC_RDPS_WindGust-Min_AGL-10m_RLatLon0.09_PT019H.grib2 2026-05-02 02:45 1.0M
20260502T00Z_MSC_RDPS_WindGust_AGL-10m_RLatLon0.09_PT019H.grib2 2026-05-02 02:45 1.0M
20260502T00Z_MSC_RDPS_WindSpeed_AGL-10m_RLatLon0.09_PT019H.grib2 2026-05-02 02:45 837K
20260502T00Z_MSC_RDPS_WindSpeed_AGL-120m_RLatLon0.09_PT019H.grib2 2026-05-02 02:45 534K
20260502T00Z_MSC_RDPS_WindSpeed_AGL-40m_RLatLon0.09_PT019H.grib2 2026-05-02 02:45 537K
20260502T00Z_MSC_RDPS_WindSpeed_AGL-80m_RLatLon0.09_PT019H.grib2 2026-05-02 02:45 535K
20260502T00Z_MSC_RDPS_WindSpeed_IsbL-0001_RLatLon0.09_PT019H.grib2 2026-05-02 02:45 250K
20260502T00Z_MSC_RDPS_WindSpeed_IsbL-0005_RLatLon0.09_PT019H.grib2 2026-05-02 02:45 343K
20260502T00Z_MSC_RDPS_WindSpeed_IsbL-0010_RLatLon0.09_PT019H.grib2 2026-05-02 02:45 358K
20260502T00Z_MSC_RDPS_WindSpeed_IsbL-0020_RLatLon0.09_PT019H.grib2 2026-05-02 02:45 317K
20260502T00Z_MSC_RDPS_WindSpeed_IsbL-0030_RLatLon0.09_PT019H.grib2 2026-05-02 02:45 316K
20260502T00Z_MSC_RDPS_WindSpeed_IsbL-0050_RLatLon0.09_PT019H.grib2 2026-05-02 02:45 344K
20260502T00Z_MSC_RDPS_WindSpeed_IsbL-0100_RLatLon0.09_PT019H.grib2 2026-05-02 02:45 470K
20260502T00Z_MSC_RDPS_WindSpeed_IsbL-0150_RLatLon0.09_PT019H.grib2 2026-05-02 02:45 379K
20260502T00Z_MSC_RDPS_WindSpeed_IsbL-0175_RLatLon0.09_PT019H.grib2 2026-05-02 02:45 402K
20260502T00Z_MSC_RDPS_WindSpeed_IsbL-0200_RLatLon0.09_PT019H.grib2 2026-05-02 02:45 437K
20260502T00Z_MSC_RDPS_WindSpeed_IsbL-0225_RLatLon0.09_PT019H.grib2 2026-05-02 02:45 442K
20260502T00Z_MSC_RDPS_WindSpeed_IsbL-0250_RLatLon0.09_PT019H.grib2 2026-05-02 02:45 445K
20260502T00Z_MSC_RDPS_WindSpeed_IsbL-0275_RLatLon0.09_PT019H.grib2 2026-05-02 02:45 464K
20260502T00Z_MSC_RDPS_WindSpeed_IsbL-0300_RLatLon0.09_PT019H.grib2 2026-05-02 02:45 462K
20260502T00Z_MSC_RDPS_WindSpeed_IsbL-0350_RLatLon0.09_PT019H.grib2 2026-05-02 02:45 473K
20260502T00Z_MSC_RDPS_WindSpeed_IsbL-0400_RLatLon0.09_PT019H.grib2 2026-05-02 02:45 477K
20260502T00Z_MSC_RDPS_WindSpeed_IsbL-0450_RLatLon0.09_PT019H.grib2 2026-05-02 02:45 460K
20260502T00Z_MSC_RDPS_WindSpeed_IsbL-0500_RLatLon0.09_PT019H.grib2 2026-05-02 02:45 460K
20260502T00Z_MSC_RDPS_WindSpeed_IsbL-0550_RLatLon0.09_PT019H.grib2 2026-05-02 02:45 582K
20260502T00Z_MSC_RDPS_WindSpeed_IsbL-0600_RLatLon0.09_PT019H.grib2 2026-05-02 02:45 594K
20260502T00Z_MSC_RDPS_WindSpeed_IsbL-0650_RLatLon0.09_PT019H.grib2 2026-05-02 02:45 657K
20260502T00Z_MSC_RDPS_WindSpeed_IsbL-0700_RLatLon0.09_PT019H.grib2 2026-05-02 02:45 683K
20260502T00Z_MSC_RDPS_WindSpeed_IsbL-0750_RLatLon0.09_PT019H.grib2 2026-05-02 02:45 716K
20260502T00Z_MSC_RDPS_WindSpeed_IsbL-0800_RLatLon0.09_PT019H.grib2 2026-05-02 02:45 761K
20260502T00Z_MSC_RDPS_WindSpeed_IsbL-0850_RLatLon0.09_PT019H.grib2 2026-05-02 02:45 816K
20260502T00Z_MSC_RDPS_WindSpeed_IsbL-0875_RLatLon0.09_PT019H.grib2 2026-05-02 02:45 790K
20260502T00Z_MSC_RDPS_WindSpeed_IsbL-0900_RLatLon0.09_PT019H.grib2 2026-05-02 02:45 848K
20260502T00Z_MSC_RDPS_WindSpeed_IsbL-0925_RLatLon0.09_PT019H.grib2 2026-05-02 02:45 860K
20260502T00Z_MSC_RDPS_WindSpeed_IsbL-0950_RLatLon0.09_PT019H.grib2 2026-05-02 02:45 858K
20260502T00Z_MSC_RDPS_WindSpeed_IsbL-0970_RLatLon0.09_PT019H.grib2 2026-05-02 02:45 857K
20260502T00Z_MSC_RDPS_WindSpeed_IsbL-0985_RLatLon0.09_PT019H.grib2 2026-05-02 02:45 853K
20260502T00Z_MSC_RDPS_WindSpeed_IsbL-1000_RLatLon0.09_PT019H.grib2 2026-05-02 02:45 848K
20260502T00Z_MSC_RDPS_WindSpeed_IsbL-1015_RLatLon0.09_PT019H.grib2 2026-05-02 02:45 838K
20260502T00Z_MSC_RDPS_WindU_AGL-10m_RLatLon0.09_PT019H.grib2 2026-05-02 02:45 434K
20260502T00Z_MSC_RDPS_WindU_AGL-120m_RLatLon0.09_PT019H.grib2 2026-05-02 02:45 535K
20260502T00Z_MSC_RDPS_WindU_AGL-40m_RLatLon0.09_PT019H.grib2 2026-05-02 02:45 537K
20260502T00Z_MSC_RDPS_WindU_AGL-80m_RLatLon0.09_PT019H.grib2 2026-05-02 02:45 536K
20260502T00Z_MSC_RDPS_WindU_IsbL-0001_RLatLon0.09_PT019H.grib2 2026-05-02 02:45 290K
20260502T00Z_MSC_RDPS_WindU_IsbL-0005_RLatLon0.09_PT019H.grib2 2026-05-02 02:45 282K
20260502T00Z_MSC_RDPS_WindU_IsbL-0010_RLatLon0.09_PT019H.grib2 2026-05-02 02:45 292K
20260502T00Z_MSC_RDPS_WindU_IsbL-0020_RLatLon0.09_PT019H.grib2 2026-05-02 02:45 348K
20260502T00Z_MSC_RDPS_WindU_IsbL-0030_RLatLon0.09_PT019H.grib2 2026-05-02 02:45 348K
20260502T00Z_MSC_RDPS_WindU_IsbL-0050_RLatLon0.09_PT019H.grib2 2026-05-02 02:45 374K
20260502T00Z_MSC_RDPS_WindU_IsbL-0100_RLatLon0.09_PT019H.grib2 2026-05-02 02:45 331K
20260502T00Z_MSC_RDPS_WindU_IsbL-0150_RLatLon0.09_PT019H.grib2 2026-05-02 02:45 395K
20260502T00Z_MSC_RDPS_WindU_IsbL-0175_RLatLon0.09_PT019H.grib2 2026-05-02 02:45 416K
20260502T00Z_MSC_RDPS_WindU_IsbL-0200_RLatLon0.09_PT019H.grib2 2026-05-02 02:45 332K
20260502T00Z_MSC_RDPS_WindU_IsbL-0225_RLatLon0.09_PT019H.grib2 2026-05-02 02:45 336K
20260502T00Z_MSC_RDPS_WindU_IsbL-0250_RLatLon0.09_PT019H.grib2 2026-05-02 02:45 337K
20260502T00Z_MSC_RDPS_WindU_IsbL-0275_RLatLon0.09_PT019H.grib2 2026-05-02 02:45 352K
20260502T00Z_MSC_RDPS_WindU_IsbL-0300_RLatLon0.09_PT019H.grib2 2026-05-02 02:45 350K
20260502T00Z_MSC_RDPS_WindU_IsbL-0350_RLatLon0.09_PT019H.grib2 2026-05-02 02:45 359K
20260502T00Z_MSC_RDPS_WindU_IsbL-0400_RLatLon0.09_PT019H.grib2 2026-05-02 02:45 466K
20260502T00Z_MSC_RDPS_WindU_IsbL-0450_RLatLon0.09_PT019H.grib2 2026-05-02 02:45 466K
20260502T00Z_MSC_RDPS_WindU_IsbL-0500_RLatLon0.09_PT019H.grib2 2026-05-02 02:45 466K
20260502T00Z_MSC_RDPS_WindU_IsbL-0550_RLatLon0.09_PT019H.grib2 2026-05-02 02:45 472K
20260502T00Z_MSC_RDPS_WindU_IsbL-0600_RLatLon0.09_PT019H.grib2 2026-05-02 02:45 483K
20260502T00Z_MSC_RDPS_WindU_IsbL-0650_RLatLon0.09_PT019H.grib2 2026-05-02 02:45 484K
20260502T00Z_MSC_RDPS_WindU_IsbL-0700_RLatLon0.09_PT019H.grib2 2026-05-02 02:45 509K
20260502T00Z_MSC_RDPS_WindU_IsbL-0750_RLatLon0.09_PT019H.grib2 2026-05-02 02:45 538K
20260502T00Z_MSC_RDPS_WindU_IsbL-0800_RLatLon0.09_PT019H.grib2 2026-05-02 02:45 577K
20260502T00Z_MSC_RDPS_WindU_IsbL-0850_RLatLon0.09_PT019H.grib2 2026-05-02 02:45 625K
20260502T00Z_MSC_RDPS_WindU_IsbL-0875_RLatLon0.09_PT019H.grib2 2026-05-02 02:45 642K
20260502T00Z_MSC_RDPS_WindU_IsbL-0900_RLatLon0.09_PT019H.grib2 2026-05-02 02:45 652K
20260502T00Z_MSC_RDPS_WindU_IsbL-0925_RLatLon0.09_PT019H.grib2 2026-05-02 02:45 659K
20260502T00Z_MSC_RDPS_WindU_IsbL-0950_RLatLon0.09_PT019H.grib2 2026-05-02 02:45 655K
20260502T00Z_MSC_RDPS_WindU_IsbL-0970_RLatLon0.09_PT019H.grib2 2026-05-02 02:45 657K
20260502T00Z_MSC_RDPS_WindU_IsbL-0985_RLatLon0.09_PT019H.grib2 2026-05-02 02:45 793K
20260502T00Z_MSC_RDPS_WindU_IsbL-1000_RLatLon0.09_PT019H.grib2 2026-05-02 02:45 788K
20260502T00Z_MSC_RDPS_WindU_IsbL-1015_RLatLon0.09_PT019H.grib2 2026-05-02 02:45 827K
20260502T00Z_MSC_RDPS_WindV_AGL-10m_RLatLon0.09_PT019H.grib2 2026-05-02 02:45 432K
20260502T00Z_MSC_RDPS_WindV_AGL-120m_RLatLon0.09_PT019H.grib2 2026-05-02 02:45 415K
20260502T00Z_MSC_RDPS_WindV_AGL-40m_RLatLon0.09_PT019H.grib2 2026-05-02 02:45 533K
20260502T00Z_MSC_RDPS_WindV_AGL-80m_RLatLon0.09_PT019H.grib2 2026-05-02 02:45 415K
20260502T00Z_MSC_RDPS_WindV_IsbL-0001_RLatLon0.09_PT019H.grib2 2026-05-02 02:45 291K
20260502T00Z_MSC_RDPS_WindV_IsbL-0005_RLatLon0.09_PT019H.grib2 2026-05-02 02:45 283K
20260502T00Z_MSC_RDPS_WindV_IsbL-0010_RLatLon0.09_PT019H.grib2 2026-05-02 02:45 293K
20260502T00Z_MSC_RDPS_WindV_IsbL-0020_RLatLon0.09_PT019H.grib2 2026-05-02 02:45 311K
20260502T00Z_MSC_RDPS_WindV_IsbL-0030_RLatLon0.09_PT019H.grib2 2026-05-02 02:45 310K
20260502T00Z_MSC_RDPS_WindV_IsbL-0050_RLatLon0.09_PT019H.grib2 2026-05-02 02:45 338K
20260502T00Z_MSC_RDPS_WindV_IsbL-0100_RLatLon0.09_PT019H.grib2 2026-05-02 02:45 424K
20260502T00Z_MSC_RDPS_WindV_IsbL-0150_RLatLon0.09_PT019H.grib2 2026-05-02 02:45 393K
20260502T00Z_MSC_RDPS_WindV_IsbL-0175_RLatLon0.09_PT019H.grib2 2026-05-02 02:45 415K
20260502T00Z_MSC_RDPS_WindV_IsbL-0200_RLatLon0.09_PT019H.grib2 2026-05-02 02:45 332K
20260502T00Z_MSC_RDPS_WindV_IsbL-0225_RLatLon0.09_PT019H.grib2 2026-05-02 02:45 336K
20260502T00Z_MSC_RDPS_WindV_IsbL-0250_RLatLon0.09_PT019H.grib2 2026-05-02 02:45 336K
20260502T00Z_MSC_RDPS_WindV_IsbL-0275_RLatLon0.09_PT019H.grib2 2026-05-02 02:45 351K
20260502T00Z_MSC_RDPS_WindV_IsbL-0300_RLatLon0.09_PT019H.grib2 2026-05-02 02:45 348K
20260502T00Z_MSC_RDPS_WindV_IsbL-0350_RLatLon0.09_PT019H.grib2 2026-05-02 02:45 355K
20260502T00Z_MSC_RDPS_WindV_IsbL-0400_RLatLon0.09_PT019H.grib2 2026-05-02 02:45 360K
20260502T00Z_MSC_RDPS_WindV_IsbL-0450_RLatLon0.09_PT019H.grib2 2026-05-02 02:45 463K
20260502T00Z_MSC_RDPS_WindV_IsbL-0500_RLatLon0.09_PT019H.grib2 2026-05-02 02:45 464K
20260502T00Z_MSC_RDPS_WindV_IsbL-0550_RLatLon0.09_PT019H.grib2 2026-05-02 02:45 468K
20260502T00Z_MSC_RDPS_WindV_IsbL-0600_RLatLon0.09_PT019H.grib2 2026-05-02 02:45 462K
20260502T00Z_MSC_RDPS_WindV_IsbL-0650_RLatLon0.09_PT019H.grib2 2026-05-02 02:45 482K
20260502T00Z_MSC_RDPS_WindV_IsbL-0700_RLatLon0.09_PT019H.grib2 2026-05-02 02:45 506K
20260502T00Z_MSC_RDPS_WindV_IsbL-0750_RLatLon0.09_PT019H.grib2 2026-05-02 02:45 534K
20260502T00Z_MSC_RDPS_WindV_IsbL-0800_RLatLon0.09_PT019H.grib2 2026-05-02 02:45 573K
20260502T00Z_MSC_RDPS_WindV_IsbL-0850_RLatLon0.09_PT019H.grib2 2026-05-02 02:45 619K
20260502T00Z_MSC_RDPS_WindV_IsbL-0875_RLatLon0.09_PT019H.grib2 2026-05-02 02:45 637K
20260502T00Z_MSC_RDPS_WindV_IsbL-0900_RLatLon0.09_PT019H.grib2 2026-05-02 02:45 647K
20260502T00Z_MSC_RDPS_WindV_IsbL-0925_RLatLon0.09_PT019H.grib2 2026-05-02 02:45 655K
20260502T00Z_MSC_RDPS_WindV_IsbL-0950_RLatLon0.09_PT019H.grib2 2026-05-02 02:45 648K
20260502T00Z_MSC_RDPS_WindV_IsbL-0970_RLatLon0.09_PT019H.grib2 2026-05-02 02:45 650K
20260502T00Z_MSC_RDPS_WindV_IsbL-0985_RLatLon0.09_PT019H.grib2 2026-05-02 02:45 788K
20260502T00Z_MSC_RDPS_WindV_IsbL-1000_RLatLon0.09_PT019H.grib2 2026-05-02 02:45 783K
20260502T00Z_MSC_RDPS_WindV_IsbL-1015_RLatLon0.09_PT019H.grib2 2026-05-02 02:45 777K